Preview of NWS' New Version of Forecast
This preview is not operational and should not be used for support decisions.

Regional Weather Roundup (RWR)

Issued by National Weather Service (NWS)

                            
000
ASUS43 KDMX 250506
RWRIA 

WEATHER ROUNDUP FOR IOWA
NATIONAL WEATHER SERVICE DES MOINES IA
1200 AM CDT TUE JUN 25 2019

NOTE: "FAIR" INDICATES FEW OR NO CLOUDS BELOW 12,000 FEET WITH NO
SIGNIFICANT WEATHER AND/OR OBSTRUCTIONS TO VISIBILITY.

* - THESE STATIONS ARE NOT NWS STATIONS...THUS NOT UNDER NWS
QUALITY CONTROL.  THEY ALSO DO NOT REPORT WEATHER SUCH 
AS PRECIPITATION OR FOG.  

IAZ001>003-012>014-020>022-031>034-043>046-250600-
   NORTHWEST IOWA
  
CITY           SKY/WX    TMP DP  RH WIND       PRES   REMARKS
CARROLL *      CLEAR     66  57  72 SW12      29.77S                  
CHEROKEE *     CLEAR     58  58 100 CALM      29.75S                  
DENISON *      CLEAR     66  57  72 S5        29.79S                  
LE MARS *      CLEAR     64  59  82 S5        29.73S                  
SHELDON *        N/A     63  63 100 S8        29.72S                  
SIOUX CITY     CLEAR     65  56  72 S6        29.74S                  
SPENCER        PTCLDY    69  53  56 N13       29.76R                  
STORM LAKE *   CLEAR     63  57  82 S6        29.73S                  
$$
 
IAZ055>058-069>071-079>083-090>094-250600-
   SOUTHWEST IOWA
  
CITY           SKY/WX    TMP DP  RH WIND       PRES   REMARKS
ATLANTIC *     CLEAR     63  63 100 S6        29.79S                  
AUDUBON *      CLEAR     64  57  77 CALM      29.80F                  
CLARINDA *     CLEAR     63  63 100 SW3       29.84S                  
COUNCIL BLFS * CLEAR     66  61  82 S7        29.78F                  
CRESTON *      CLEAR     64  59  82 SW9       29.83S                  
HARLAN  *      CLEAR     64  59  82 CALM      29.79S                  
LAMONI         CLEAR     67  58  72 SW10      29.84S                  
RED OAK *      CLEAR     64  61  88 S3        29.82S                  
SHENANDOAH *   CLEAR     66  61  82 CALM      29.81S                  
$$
 
IAZ047>049-059>061-072>074-084-250600-
   CENTRAL IOWA
  
CITY           SKY/WX    TMP DP  RH WIND       PRES   REMARKS
AMES           PTCLDY    64  59  83 SW9       29.77F                  
ANKENY *       CLEAR     68  57  68 SW7       29.80R                  
BOONE *        CLEAR     64  63  94 SW6       29.78R                  
CHARITON *     CLEAR     66  61  82 SW7       29.82S                  
DES MOINES     CLEAR     67  57  70 SW8       29.79R                  
GRINNELL*      CLEAR     62  58  86 S7        29.80S                  
KNOXVILLE *    CLEAR     66  59  77 SW8       29.80S                  
MARSHALLTOWN   CLEAR     62  58  86 SW5       29.77R                  
NEWTON *       CLEAR     63  61  94 SW8       29.79S                  
PELLA *        CLEAR     65  58  78 SW6       29.81S                  
$$
 
IAZ004>006-015-016-023>025-035-036-250600-
   NORTH CENTRAL IOWA
  
CITY           SKY/WX    TMP DP  RH WIND       PRES   REMARKS
ALGONA *       MOCLDY    64  59  82 SW8       29.74R                  
CLARION *      CLEAR     63  61  94 SW9       29.75F                  
ESTHERVILLE    MOCLDY    62  58  86 W12       29.76F                  
FORT DODGE *   CLEAR     62  58  86 CALM      29.77R                  
MASON CITY     CLEAR     62  56  80 S8        29.75S                  
FOREST CITY *  FAIR      61  59  94 CALM      29.74S                  
IOWA FALLS *   FAIR      65  60  82 SW10      29.77S                  
$$

IAZ007>011-017>019-026>030-037>042-050>054-066-250600-
   NORTHEAST IOWA
  
CITY           SKY/WX    TMP DP  RH WIND       PRES   REMARKS
CEDAR RAPIDS   CLOUDY    63  59  87 NW3       29.77S                  
CHARLES CITY * FAIR      63  57  82 SW5       29.75S                  
CLINTON *      MOCLDY    65  60  84 W12       29.78R                  
DECORAH *      FAIR      61  61 100 S3        29.73S                  
DUBUQUE        FAIR      59  59 100 SW5       29.76S                  
MONTICELLO *   FAIR      63  63 100 SW7       29.76S                  
OELWEIN *      CLOUDY    64  63  94 W17       29.78R FOG              
WATERLOO       MOCLDY    64  59  83 NE3       29.76R                  
$$
 
IAZ064-065-067-068-078-250600-
   EAST CENTRAL IOWA
  
CITY           SKY/WX    TMP DP  RH WIND       PRES   REMARKS
DAVENPORT      FAIR      67  58  72 SW8       29.80R                  
IOWA CITY      FAIR      66  59  78 S3        29.79S                  
MT. PLEASANT * CLEAR     64  61  88 CALM      29.81S                  
MUSCATINE *    FAIR      66  59  77 SW8       29.79S                  
QUAD CITIES    FAIR      67  58  72 SW6       29.78R                  
$$
 
IAZ062-063-075>077-085>089-095>099-250600-
   SOUTHEAST IOWA
  
CITY           SKY/WX    TMP DP  RH WIND       PRES   REMARKS
BURLINGTON     CLEAR     68  58  70 SW10      29.81S                  
FAIRFIELD *    CLEAR     66  59  77 SW9       29.81S                  
FORT MADISON * CLEAR     68  61  77 SW9       29.83F                  
KEOKUK *       CLEAR     66  59  77 SW8       29.83F                  
OSKALOOSA *    FAIR      65  58  80 SW9       29.81S                  
CENTERVILLE *  FAIR      64  61  88 CALM      29.85S                  
OTTUMWA        CLEAR     67  58  72 SW9       29.81S                  
WASHINGTON *   PTCLDY    64  64 100 SW7       29.79S                  
$$

ABBREVIATIONS USED IN REMARKS
   TC - TEMPERATURES IN CELSIUS
  WCI - WIND CHILL INDEX
   HX - HEAT INDEX
  VSB - VISIBILITY  
$$